Back to catalog

CAPELLA-17

ACADIA

AliveScienceSSO
NORAD 64583·PAYLOAD·🇺🇸 United States

Launched Jun 23, 2025 from Vandenberg Space Force Base

Loading…

Next Passes (next 24 hours)

TLE

FreshSource: Space-Track

Epoch: Sep 13, 2026, 06:34 UTC

1 64583U 25135BH  26256.27392435  .00004921  00000-0  48824-3 0  9993
2 64583  97.7756   8.6486 0006311  69.7493 290.4403 14.92199544 66989

Track CAPELLA-17 in real time with AllMySat

Download on the App Store